Location: Newark
(48.1500°N, 2.9667°W)
Time: 18:04:44
(UTC+00:00)

Transit 2A - Pass Details

Date: 02 February 2020
Orbit: 600 x 959 km, 66.7° (Epoch: 22 February)

Event Time Altitude Azimuth Distance (km) Brightness Sun altitude
Rises 18:24:48 0° 214° (SSW) 2,870 9.7 -12.3°
Reaches altitude 10° 18:27:03 10° 214° (SW) 1,950 8.8 -12.7°
Maximum altitude 18:31:24 88° 299° (WNW) 607 5.5 -13.4°
Enters shadow 18:35:23 12° 35° (NE) 1,808 7.5 -14.0°
Drops below altitude 10° 18:35:47 10° 35° (NE) 1,968 - -14.1°
Sets 18:38:05 0° 35° (NE) 2,900 - -14.5°
